Regional Weather Roundup
Issued by NWS Portland, ME

Current Version | Previous Version | Text Only | Print | Product List | Glossary Off
Versions: 1 2 3 4 5 6 7 8 9 10 11 12 13 14 15 16 17 18 19 20 21 22 23 24 25 26 27 28 29 30 31 32 33 34 35 36 37 38 39 40 41 42 43 44 45 46 47 48 49 50
000 ASUS41 KGYX 221905 RWRGYX WEATHER ROUNDUP FOR MAINE AND NEW HAMPSHIRE NATIONAL WEATHER SERVICE GRAY ME 300 PM EDT MON OCT 22 2018 MEZ002-005-006-010-012-015-018-020-021-024-026-027-029-222000- MAINE CITY SKY/WX TMP DP RH WIND PRES REMARKS PORTLAND FAIR 49 20 31 W16 30.11S WISCASSET FAIR 46 20 35 VRB5 30.11S FRYEBURG NOT AVBL AUGUSTA FAIR 44 18 35 W8G17 30.09S BANGOR FAIR 43 18 36 NW13 30.08R GREENVILLE NOT AVBL MILLINOCKET FAIR 40 15 36 NW13 30.04R HOULTON CLOUDY 40 17 39 NW12 29.98R PRESQUE ISLE NOT AVBL FRENCHVILLE CLOUDY 38 16 40 W22G31 29.94R CARIBOU NOT AVBL $$ NHZ002-005-008-009-011-012-014-222000- NEW HAMPSHIRE CITY SKY/WX TMP DP RH WIND PRES REMARKS ROCHESTER FAIR 48 23 37 W12G20 30.11F MANCHESTER PTSUNNY 49 22 34 VRB5 30.10F CONCORD FAIR 49 24 37 W8 30.12F PLYMOUTH CLOUDY 44 23 43 W5 30.10F BERLIN FAIR 42 19 39 VRB7 30.07F WHITEFIELD PTSUNNY 41 21 44 W9 30.08F JAFFREY CLOUDY 46 25 43 W6 30.11F LEBANON CLOUDY 47 24 40 W5 30.10S MT WASHINGTON FOG 14 14 100 W49 N/A VSB 1/16WCI -11 $$ VTZ005-007-008-222000- VERMONT CITY SKY/WX TMP DP RH WIND PRES REMARKS ST JOHNSBURY N/A 40 22 48 MISG 30.09S MONTPELIER CLOUDY 40 25 55 VRB3 30.12F $$ MAZ007-012-024-CTZ003-RIZ002-NYZ038-NYZ072-222000- SOUTHERN NEW ENGLAND AND NY CITY SKY/WX TMP DP RH WIND PRES REMARKS NANTUCKET CLOUDY 49 31 49 W12 30.18F PROVIDENCE PTSUNNY 49 30 48 W13 30.17F HARTFORD PTSUNNY 48 31 51 S9 30.16F ALBANY CLOUDY 48 31 51 S9 30.13F NEW YORK CITY PTSUNNY 52 33 48 SW14 30.18F $$ ANZ081-ANZ082-ANZ150-NHZ014-MEZ023>029-222000- COASTAL MARINE OBSERVATIONS STATION/POSITION TIME TEMP WIND PRES WAVE AIR SEA DIR/SP/G HT/PER (UTC) (F) (DEG/KT/KT) (MB) (FT/S) MOUNT DESERT ROC 1800 40 240/ 17/ 19 1019.0R MATINICUS ROCK 1800 43 270/ 15/ 18 1018.9F ISLE OF SHOALS 1800 46 300/ 14/ 16 1019.8F JEFFREYS LEDGE 1806 55 N/A 3/12 $$ .............KEY.............. WCI - WIND CHILL TC - TEMPERATURE IN CELSIUS VSB - VISIBILITY IN MILES HX - HEAT INDEX FAIR- INDICATES FEW OR NO CLOUDS BELOW 12,000 FT, WITH NO SIGNIFICANT WEATHER AND/OR OBSTRUCTIONS TO VISIBILITY.

USA.gov is the U.S. government's official web portal to all federal, state and local government web resources and services.